AirNav   ProFlight Series 2 Aviation Headset
 
 593 users online  

KMMK Meriden Markham Municipal Airport
Meriden, Connecticut, USA

GOING TO MERIDEN?


FAA INFORMATION EFFECTIVE 16 JULY 2020

Location

FAA Identifier: MMK
Lat/Long: 41-30-31.3730N 072-49-46.1220W
41-30.522883N 072-49.768700W
41.5087147,-72.8294783
(estimated)
Elevation: 103 ft. / 31.4 m (surveyed)
Variation: 14W (1995)
From city: 3 miles SW of MERIDEN, CT
Time zone: UTC -4 (UTC -5 during Standard Time)
Zip code: 06492

Airport Operations

Airport use: Open to the public
Activation date: 04/1940
Control tower: no
ARTCC: BOSTON CENTER
FSS: BRIDGEPORT FLIGHT SERVICE STATION
NOTAMs facility: MMK (NOTAM-D service available)
Attendance: MON-SUN 0900-1900
Wind indicator: lighted
Segmented circle: yes
Lights: ACTVT REIL RWY 36; MIRL RWY 18/36 - CTAF.
Beacon: white-green (lighted land airport)
Operates sunset to sunrise.

Airport Communications

CTAF/UNICOM: 123.05
WX ASOS: 134.925 (203-639-9405)
YANKEE APPROACH: 127.8
YANKEE DEPARTURE: 127.8
CLEARANCE DELIVERY: 120.65
WX AWOS-AV at CT71 (12 nm N): 129.825
WX AWOS-3PT at OXC (14 nm W): 132.975 (203-262-1190)
WX ASOS at HVN (15 nm S): PHONE 203-466-6205
WX ASOS at HFD (16 nm NE): PHONE 860-527-5837
WX AWOS-3 at SNC (16 nm SE): 118.325 (860-526-1551)

Nearby radio navigation aids

VOR radial/distance  VOR name  Freq  Var
MADr345/13.2MADISON VOR/DME110.4013W
HFDr251/14.9HARTFORD VOR/DME114.9013W
BDRr044/24.8BRIDGEPORT VOR/DME108.8012W
CCCr011/34.8CALVERTON VOR/DME117.2013W
CMKr080/36.5CARMEL VOR/DME116.6012W
GONr301/36.6GROTON VOR/DME110.8514W
ORWr280/37.4NORWICH VOR/DME110.0014W
PWLr126/38.0PAWLING VOR/DME114.3012W
BAFr201/39.5BARNES VORTAC113.0014W

Airport Services

Fuel available: 100LL
SELF SVC FUEL, CREDIT CARD ONLY (ALL MAJOR CARDS ACPTD).
Parking: tiedowns
Airframe service: MAJOR
Powerplant service: MAJOR
Bottled oxygen: NONE
Bulk oxygen: NONE

Runway Information

Runway 18/36

Dimensions: 3100 x 75 ft. / 945 x 23 m
Surface: asphalt, in good condition
Weight bearing capacity: 
Single wheel: 30.0
Runway edge lights: medium intensity
RUNWAY 18  RUNWAY 36
Latitude: 41-30.765183N41-30.280600N
Longitude: 072-49.875433W072-49.661983W
Elevation: 103.0 ft.98.6 ft.
Traffic pattern: leftleft
Runway heading: 176 magnetic, 162 true356 magnetic, 342 true
Markings: nonprecision, in fair conditionnonprecision, in fair condition
Visual slope indicator: 4-light PAPI on left (3.50 degrees glide path)
VGSI AND DSCNT ANGLES NOT COINCIDENT.
Runway end identifier lights: yes
Touchdown point: yes, no lightsyes, no lights
Obstructions: 12 ft. tree, 246 ft. from runway, 3:1 slope to clear
+20 FT TREES, 120 FT RIGHT OF AER.
50 ft. pline, marked and lighted, 1217 ft. from runway, 20:1 slope to clear

Airport Ownership and Management from official FAA records

Ownership: Publicly-owned
Owner: CITY OF MERIDEN
WILMA PETRO, PURCHASING, CITY HALL; 142 E MAIN ST
MERIDEN, CT 06450
Phone (203) 630-4115
Manager: CONSTANCE CASTILLO
213 EVANSVILLE AVENUE
MERIDEN, CT 06451
Phone 203-630-2878

Airport Operational Statistics

Aircraft based on the field: 25
Single engine airplanes: 25
    
Aircraft operations: avg 46/day *
90% local general aviation
9% transient general aviation
1% air taxi
<1% military
* for 12-month period ending 30 September 2015

Additional Remarks

RWY 36 NO TGLS.
PPR FOR JET ACFT.
CRANE(S) +150 FT AGL, 1/4 MI NW AER 18, OPRG INTMT DALGT HRS.
CALM WIND RWY 18.
STD LEFT TFC, BOTH RWYS.
FOR CD CTC YANKEE APCH AT 860-386-3597.

Instrument Procedures

NOTE: All procedures below are presented as PDF files. If you need a reader for these files, you should download the free Adobe Reader.

NOT FOR NAVIGATION. Please procure official charts for flight.
FAA instrument procedures published for use from 16 July 2020 at 0901Z to 13 August 2020 at 0900Z.

 
IAPs - Instrument Approach Procedures
RNAV (GPS) RWY 36 **CHANGED**   download (203KB)
VOR RWY 36   download (268KB)
NOTE: Special Alternate Minimums apply   download (81KB)
NOTE: Special Take-Off Minimums/Departure Procedures apply   download (178KB)

Other nearby airports with instrument procedures:

4B8 - Robertson Field Airport (11 nm N)
KOXC - Waterbury-Oxford Airport (14 nm W)
KHVN - Tweed-New Haven Airport (15 nm S)
KHFD - Hartford-Brainard Airport (16 nm NE)
KSNC - Chester Airport (16 nm SE)
 
Loc | Ops | Rwys | IFR | FBO | Links
Com | Nav | Svcs | Stats | Notes

Silver City Flying Club
 
Area around KMMK (Meriden Markham Municipal Airport)
 
Road maps at: MapQuest Bing Google
 
Aerial photo
WARNING: Photo may not be current or correct
Aerial photo of KMMK (Meriden Markham Municipal Airport)
Photo courtesy of Stephen Taylor Photo
Photo taken 19-Aug-2012
looking southeast.

Do you have a better or more recent aerial photo of Meriden Markham Municipal Airport that you would like to share? If so, please send us your photo.

 
Sectional chart

 
Airport distance calculator
Flying to Meriden Markham Municipal Airport? Find the distance to fly.

From to KMMK

Sunrise and sunset
Times for 07-Aug-2020
 Local
(UTC-4)
 Zulu
(UTC)
Morning civil twilight05:2309:23
Sunrise05:5409:54
Sunset20:0024:00
Evening civil twilight20:3000:30

Current date and time
Zulu (UTC)  07-Aug-2020 05:27:03
Local (UTC-4)  07-Aug-2020 01:27:03
 
METAR
KMMK 062153Z AUTO 18009KT 10SM OVC120 27/16 A3008 RMK AO2 SLP186 T02670161
KOXC 
13nm W 
070451Z AUTO 00000KT 10SM CLR 19/17 A3015 RMK AO2 SLP219 T01890172 402670150
KHVN 
15nm S 
070453Z AUTO 04003KT 10SM CLR 22/20 A3012 RMK AO2 SLP199 T02170200 402890178
KHFD 
16nm NE 
070453Z AUTO 00000KT 10SM CLR 21/18 A3012 RMK AO2 SLP200 T02110183 402830206 $
KSNC 
16nm SE 
070455Z AUTO 00000KT 10SM FEW060 19/18 A3014 RMK AO2
TAF
KBDR 
25nm SW 
070246Z 0703/0724 VRB03KT P6SM BKN060 BKN090 BKN120 TEMPO 0707/0710 5SM -SHRA OVC035 FM071000 06004KT 4SM -SHRA SCT025 BKN035 BKN070 FM071100 06005KT 6SM -SHRA BKN030 BKN070 FM071200 06007KT 5SM -SHRA BKN025 OVC070 FM071800 08010KT P6SM VCSH BKN025 OVC040 AMD NOT SKED
KBDL 
26nm N 
062006Z 0620/0724 24004KT P6SM SCT060 FM070000 VRB03KT P6SM BKN150 FM071200 01004KT P6SM OVC045 FM071300 02005KT P6SM BKN035 FM071600 06005KT P6SM OVC035 FM072300 12004KT P6SM OVC030
NOTAMs
Click for the latest NOTAMs
NOTAMs are issued by the DoD/FAA and will open in a separate window not controlled by AirNav.

 

 
 

FBO, Fuel Providers, and Aircraft Ground Support

  
 Business Name 
 
 Contact 
 
 Services / Description 
 
Fuel Prices
 
Comments
  
City of Meriden 203-630-2878 Aviation fuel, Computerized weather, Internet access, Restrooms

More info about City of Meriden
Phillips 66
100LL
SS $4.30 
 Updated 23-Jul-2020
 
   2 read write
SS=Self service
Update Fuel Prices
 

Aviation Businesses, Services, and Facilities

  
 Business Name 
 
 Contact 
 
 Services / Description 
 
Distance
 
Comments
  
Silver City Flying Club 860-621-2070
[web site]
[email]
Flying club

More info about Silver City Flying Club
on airport  
   write
 

Would you like to see your business listed on this page?

 If your business provides an interesting product or service to pilots, flight crews, aircraft, or users of the Meriden Markham Municipal Airport, you should consider listing it here.  To start the listing process, click on the button below
 
Add a business
 

Other Pages about Meriden Markham Municipal Airport

Update a link
 
Copyright © AirNav, LLC. All rights reserved. Privacy Policy  Contact